Weather History for Scottsdale, AZ

Change the Weather History Date:

Monday, March 11, 2013

  Actual Average Record
Temperature  
Mean Temperature 58 °F -  
Max Temperature 73 °F 72 °F 87 °F (1997)
Min Temperature 44 °F 49 °F 39 °F (2006)
Degree Days  
Heating Degree Days 6    
Growing Degree Days 8 (Base 50)    
Moisture  
Dew Point 35 °F    
Average Humidity 45    
Maximum Humidity 74    
Minimum Humidity 16    
Precipitation  
Precipitation 0.00 in - - ()
Sea Level Pressure  
Sea Level Pressure 30.07 in    
Wind  
Wind Speed 2 mph (NW)    
Max Wind Speed 7 mph    
Max Gust Speed -    
Visibility 10 miles    
Events      
Averages and records for this station are not official NWS values.
T = Trace of Precipitation, MM = Missing Value Source: NWS Daily Summary

Daily Weather History Graph

Daily Weather History Graph

Search for Another Location

Airport:

Trip Planner

Search our weather history database for the weather conditions in past years. The results will help you decide how hot, cold, wet, or windy it might be!

Date:

Astronomy

Mar. 11, 2013 Rise Set
Actual Time 6:42 AM MST 6:32 PM MST
Civil Twilight 6:18 AM MST 6:57 PM MST
Nautical Twilight 5:49 AM MST 7:26 PM MST
Astronomical Twilight 5:20 AM MST 7:55 PM MST
Moon 6:20 AM MST (3/11) 6:45 PM MST (3/11)
Length of Visible Light 12h 39m
Length of Day
11h 49m
Waning Crescent, 0% of the Moon is Illuminated
Mar 11
Waning Crescent
Mar 11
New
Mar 19
First Quarter
Mar 27
Full
Apr 2
Last Quarter

Hourly Weather History & Observations

Time (MST) Temp. Dew Point Humidity Pressure Visibility Wind Dir Wind Speed Gust Speed Precip Events Conditions
12:53 AM 52.0 °F 42.1 °F 69% 30.12 in 10.0 mi NNE 4.6 mph - N/A   Clear
1:53 AM 51.1 °F 41.0 °F 68% 30.12 in 10.0 mi NE 4.6 mph - N/A   Clear
2:53 AM 48.9 °F 41.0 °F 74% 30.11 in 10.0 mi Calm Calm - N/A   Clear
3:53 AM 48.0 °F 39.0 °F 71% 30.10 in 10.0 mi WNW 3.5 mph - N/A   Clear
4:53 AM 48.0 °F 36.0 °F 63% 30.10 in 10.0 mi Calm Calm - N/A   Clear
5:53 AM 46.0 °F 35.1 °F 66% 30.11 in 10.0 mi Calm Calm - N/A   Clear
6:53 AM 44.1 °F 36.0 °F 73% 30.12 in 10.0 mi Calm Calm - N/A   Clear
7:53 AM 50.0 °F 39.0 °F 66% 30.14 in 10.0 mi Calm Calm - N/A   Clear
8:53 AM 55.0 °F 37.9 °F 53% 30.15 in 10.0 mi Calm Calm - N/A   Clear
9:53 AM 60.1 °F 36.0 °F 41% 30.15 in 10.0 mi Calm Calm - N/A   Clear
10:53 AM 64.0 °F 34.0 °F 33% 30.14 in 10.0 mi Calm Calm - N/A   Clear
11:53 AM 66.9 °F 30.0 °F 25% 30.12 in 10.0 mi Calm Calm - N/A   Clear
12:53 PM 69.1 °F 28.9 °F 22% 30.10 in 10.0 mi South 4.6 mph - N/A   Clear
1:53 PM 71.1 °F 27.0 °F 19% 30.06 in 10.0 mi SSW 5.8 mph - N/A   Clear
2:53 PM 71.1 °F 27.0 °F 19% 30.04 in 10.0 mi Calm Calm - N/A   Clear
4:53 PM 73.0 °F 24.1 °F 16% 30.00 in 10.0 mi West 6.9 mph - N/A   Clear
5:53 PM 73.0 °F 25.0 °F 17% 29.99 in 10.0 mi North 3.5 mph - N/A   Clear
6:53 PM 70.0 °F 30.0 °F 23% 29.99 in 10.0 mi Calm Calm - N/A   Clear
7:53 PM 66.9 °F 34.0 °F 30% 29.99 in 10.0 mi Calm Calm - N/A   Clear
8:53 PM 64.0 °F 35.1 °F 34% 30.01 in 10.0 mi Calm Calm - N/A   Clear
9:53 PM 61.0 °F 39.9 °F 46% 30.02 in 10.0 mi Calm Calm - N/A   Clear
10:53 PM 60.1 °F 39.0 °F 46% 30.02 in 10.0 mi Calm Calm - N/A   Clear
11:53 PM 55.0 °F 41.0 °F 59% 30.02 in 10.0 mi Calm Calm - N/A   Clear